Location: Northcutt
(34.7304°N, 84.4305°W)
Time: 17:40:08
(UTC+00:00)

SR - Pass Details

Date: 07 October 2022
Orbit: 577 x 874 km, 66.7° (Epoch: 05 December)

Event Time Altitude Azimuth Distance (km) Brightness Sun altitude
Rises 01:32:35 0° 219° (SW) 3,400 ? -29.0°
Reaches altitude 10° 01:35:05 10° 224° (SW) 2,490 ? -29.5°
Maximum altitude 01:40:44 52° 300° (WNW) 1,078 ? -30.6°
Enters shadow 01:44:13 24° 7° (N) 1,753 ? -31.3°
Drops below altitude 10° 01:46:29 10° 16° (NNE) 2,519 - -31.7°
Sets 01:49:02 0° 22° (NNE) 3,443 - -32.2°
